Theta_e
340 339 337 336 331 327 324 323 322 321 318 316 316 316 315 315 314 314 313 313 313 313 312 311 309 309 309 308 307 306 305 304 305 305 306 305 304 304 303 302 302 301 301
338 335 332 328 327 324 323 323 321 319 317 317 317 316 315 315 314 313 312 312 312 312 311 310 310 309 308 307 306 305 306 303 304 305 305 305 304 304 304 303 301 301 302
335 331 328 327 325 323 323 322 320 318 319 318 317 316 315 314 314 312 312 312 312 312 310 310 309 309 308 308 306 306 304 303 304 304 304 304 304 303 304 303 301 301 301
331 328 328 326 324 324 323 322 320 319 319 317 316 315 314 313 312 312 312 312 312 311 308 309 310 309 309 308 306 305 304 302 303 304 303 303 303 303 304 303 302 302 301
329 328 327 325 324 325 324 322 320 320 318 317 316 315 314 313 313 312 311 311 310 309 307 309 309 308 307 307 306 305 304 303 303 303 302 302 303 303 302 302 302 301 301
328 328 327 327 326 325 323 321 321 320 317 316 316 314 314 314 313 312 312 311 310 308 306 306 307 308 308 307 306 306 305 303 303 303 303 302 302 302 302 302 302 301 300
328 328 328 327 326 324 322 321 320 317 317 315 315 314 314 313 313 312 311 310 308 306 306 306 305 305 304 303 305 306 303 303 302 302 302 302 301 302 301 300 300 300 299
328 328 328 326 325 322 321 319 317 317 317 316 315 314 313 313 313 311 310 309 308 307 306 305 305 303 302 302 302 302 303 303 303 302 303 302 301 301 301 300 300 299 299
329 328 327 325 323 321 319 316 317 317 316 314 313 313 312 312 312 310 310 310 308 307 306 305 304 302 302 302 301 301 301 301 301 301 302 301 301 301 301 300 300 300 299
329 328 325 323 321 319 316 317 316 315 313 313 311 311 312 311 312 311 310 307 306 304 303 302 301 301 302 301 300 300 299 299 300 300 301 301 300 300 301 300 301 300 300
328 327 323 321 318 315 315 314 315 312 312 311 312 312 312 312 308 307 306 304 303 302 301 301 301 300 300 300 299 299 299 298 298 299 300 300 300 300 300 301 301 301 300
327 323 320 317 315 315 314 312 312 312 312 313 313 309 307 307 307 305 305 305 303 302 302 300 300 299 298 298 298 298 298 298 298 298 299 299 299 298 300 301 301 301 301
323 319 317 315 315 314 313 313 313 313 312 311 309 307 307 307 307 306 305 303 303 302 300 298 297 297 296 297 296 297 297 298 298 299 298 298 298 298 298 300 300 301 301
318 317 315 315 312 312 312 313 312 311 310 309 307 308 307 307 305 304 303 303 301 298 297 297 296 296 296 296 295 295 296 297 297 297 297 297 297 297 298 300 301 301 302
314 311 313 313 314 312 312 312 311 309 308 307 307 306 305 304 303 302 302 300 298 297 296 296 295 295 295 294 294 295 294 295 296 297 297 296 296 296 298 300 301 301 304
310 312 313 309 311 311 310 310 309 309 308 307 306 305 304 303 303 302 300 299 298 297 295 294 294 294 294 293 293 293 293 294 294 295 295 295 295 295 298 300 301 302 305
315 309 310 311 311 310 309 309 308 308 307 307 307 305 305 303 302 301 299 298 297 296 295 295 294 294 294 293 293 292 292 293 292 293 293 294 294 296 299 300 301 303 303
307 307 311 311 310 308 308 308 307 308 309 308 306 305 304 303 301 299 298 298 297 297 296 296 295 295 294 294 292 293 293 292 292 293 293 293 294 297 298 300 301 302 304
312 311 310 310 309 307 306 307 308 309 308 306 305 305 303 302 300 298 298 297 297 297 297 296 295 295 295 295 294 294 293 292 293 293 293 294 296 298 299 301 301 303 306
307 305 308 308 307 306 306 308 309 308 307 305 304 302 301 300 299 298 298 298 298 297 297 296 295 295 295 294 295 294 294 292 293 294 294 296 297 299 300 301 303 305 306
310 308 308 307 305 306 308 309 309 307 305 303 301 299 299 298 298 298 298 298 298 298 297 297 296 296 296 295 295 294 294 293 293 294 296 298 298 300 300 303 303 305 306
308 308 306 305 306 308 309 309 308 306 304 301 299 299 299 298 298 299 298 298 298 297 297 296 297 297 296 296 295 294 294 294 295 296 296 297 300 301 303 303 304 305 306
308 306 305 305 308 308 309 308 306 304 302 300 299 299 299 298 298 299 298 297 297 297 295 295 295 295 296 295 295 295 295 296 296 297 299 300 301 303 304 304 305 305 307
306 305 306 308 307 308 308 306 304 302 300 299 299 299 299 299 299 299 298 298 298 297 295 295 295 295 296 296 297 297 296 298 299 299 301 302 303 303 304 305 305 306 306
304 305 307 307 307 308 307 304 303 302 300 299 299 300 300 300 299 299 299 298 298 297 296 297 298 298 298 299 299 300 300 301 301 301 302 303 302 304 304 304 304 306 306
305 306 306 307 307 307 305 303 302 301 300 299 299 300 300 300 300 299 299 298 298 298 297 299 299 300 300 300 301 301 302 302 302 302 302 303 303 303 304 304 306 306 306
Wind_Speed
16 15 17 19 19 17 15 13 12 12 10 9 8 8 11 13 14 15 17 17 18 17 19 23 27 28 27 28 29 33 28 32 31 33 30 28 30 28 27 27 24 26 22
17 17 17 15 16 13 10 9 9 9 7 7 9 10 13 15 15 17 17 15 17 19 22 26 27 28 28 31 34 31 28 31 26 28 26 30 30 25 26 25 28 21 20
17 18 15 16 13 10 9 9 9 7 7 8 10 13 14 15 16 17 16 17 19 18 19 24 28 27 30 31 29 27 31 26 21 25 28 30 25 22 24 24 25 19 19
18 16 16 15 12 9 9 9 7 7 8 10 11 13 14 15 16 17 16 17 19 24 31 25 24 26 25 26 29 31 28 25 23 23 26 28 23 19 20 24 27 23 23
17 17 16 12 10 9 9 9 6 9 10 11 12 13 14 15 14 14 17 24 27 30 30 23 24 26 32 30 28 29 27 26 20 22 23 24 24 22 23 24 26 25 25
17 16 11 10 9 10 10 8 9 8 11 12 14 14 13 14 16 21 24 25 27 29 23 22 24 25 23 27 30 28 27 24 20 21 23 23 24 23 23 25 26 25 26
16 11 11 11 9 9 7 8 8 11 13 14 14 13 14 16 18 22 24 28 26 25 18 21 28 30 34 32 27 27 27 24 22 22 22 22 25 23 26 27 25 22 21
15 13 11 10 8 9 9 9 10 11 13 13 15 14 16 17 21 24 25 23 24 18 21 24 23 32 34 32 26 25 24 25 23 21 21 24 25 24 22 21 20 16 16
13 13 11 10 8 9 7 9 10 12 13 14 13 14 19 21 23 21 24 23 17 19 19 20 29 32 31 27 28 27 22 22 24 20 21 23 24 20 14 13 11 12 14
13 11 12 8 8 7 8 10 12 12 10 12 15 13 20 22 21 19 14 11 15 22 28 29 32 27 25 27 33 32 35 30 24 18 23 22 21 19 11 6 7 10 10
12 14 8 8 8 7 10 9 10 11 12 14 17 19 24 12 12 11 8 16 27 36 41 33 27 30 31 33 34 34 29 24 22 23 25 19 17 14 4 7 8 9 10
16 8 9 5 3 6 8 9 11 12 16 18 16 14 17 23 22 14 20 29 38 42 41 38 36 31 28 22 18 17 17 16 15 14 14 12 11 11 9 5 6 9 8
9 7 3 1 4 8 9 12 13 15 15 14 18 20 18 18 17 24 33 37 40 40 31 27 22 17 16 16 16 16 14 11 11 8 8 7 8 12 9 7 3 3 5
8 6 3 2 7 10 11 8 12 14 15 15 17 15 15 16 24 32 37 42 34 28 28 20 18 19 17 14 14 12 10 9 6 9 5 7 9 8 4 5 0 0 2
8 6 4 3 8 13 12 13 14 14 16 13 13 13 16 22 28 34 37 29 26 25 21 17 18 19 20 18 15 11 10 7 3 5 4 5 8 5 3 6 2 2 5
5 2 1 1 3 7 11 11 14 16 11 12 10 11 16 23 33 36 28 26 23 22 19 18 19 18 17 16 15 13 10 7 4 1 3 5 5 3 8 7 3 3 4
10 7 1 5 6 7 10 12 15 14 13 10 17 19 24 30 34 28 28 24 20 19 20 19 19 18 17 15 13 11 9 8 7 5 2 4 3 3 10 6 6 5 2
4 4 6 3 4 8 10 12 13 14 10 16 18 19 25 33 29 27 24 21 22 22 21 20 19 18 16 14 13 13 11 7 7 3 2 3 5 10 9 5 4 4 4
3 3 3 5 5 9 10 11 13 11 12 11 16 21 31 30 26 23 22 22 23 23 22 20 19 17 15 13 11 10 9 9 6 5 4 7 13 12 9 8 6 7 11
3 7 8 8 7 9 10 12 12 12 13 15 21 26 30 26 25 24 23 23 23 23 22 21 19 16 14 13 10 8 7 8 7 7 8 13 14 10 10 11 9 11 13
7 10 7 6 9 10 11 12 12 13 12 14 19 26 23 22 23 23 23 24 24 23 23 22 20 17 14 12 10 8 9 8 9 11 14 16 12 12 14 13 12 15 22
4 4 5 8 9 11 11 10 12 14 13 15 23 22 21 22 22 22 23 24 23 23 23 22 21 17 15 14 12 11 12 12 13 15 17 14 14 16 16 14 15 22 28
6 6 7 10 10 10 11 12 12 12 14 20 22 21 22 22 22 21 23 23 23 23 24 20 17 17 15 14 13 15 17 17 16 17 16 16 16 16 16 17 21 26 26
8 8 9 9 11 10 11 11 12 14 16 22 20 21 21 22 22 20 21 22 22 23 24 19 18 18 18 18 18 18 19 19 19 18 16 18 16 15 15 18 23 23 22
9 10 10 10 10 10 11 10 12 15 20 21 21 21 20 20 20 18 20 21 21 24 22 22 22 23 24 25 24 23 21 20 19 18 18 16 15 13 15 19 21 22 22
11 11 10 10 11 10 10 10 13 16 21 20 21 21 21 21 19 16 18 20 20 20 19 22 24 24 23 22 20 19 18 17 16 15 16 16 16 16 17 22 24 26 21
Wind_Direction
197 199 200 200 208 214 214 222 236 254 273 291 304 282 283 287 289 290 291 295 302 301 297 299 303 306 300 306 312 312 307 309 299 298 300 309 315 313 319 323 320 316 310
199 198 207 201 209 214 224 236 255 271 295 297 285 286 287 285 288 289 292 289 290 293 296 301 304 306 302 308 312 312 302 314 302 296 303 304 313 313 319 322 325 317 316
197 202 200 201 215 220 229 245 262 283 288 282 276 280 284 287 285 292 295 294 296 288 302 303 301 300 305 310 308 312 311 313 304 299 301 305 312 313 315 322 333 327 317
201 203 205 215 218 227 239 250 272 286 278 281 284 284 287 291 291 292 290 287 282 291 302 299 301 303 304 306 304 309 314 313 300 301 305 311 315 318 309 318 321 333 324
195 201 219 219 214 230 240 252 266 260 281 280 287 289 291 294 302 291 296 304 307 309 309 296 297 303 305 303 299 306 307 312 299 302 306 312 313 308 312 314 317 325 329
193 210 213 215 223 230 244 250 262 278 277 279 285 293 295 299 296 297 300 303 310 315 310 311 309 313 310 305 300 292 302 304 298 300 304 307 313 308 307 309 311 321 326
205 197 213 219 226 242 259 254 263 273 280 297 306 305 299 300 300 301 306 314 316 325 317 313 309 306 310 309 299 289 305 302 295 292 291 299 312 314 302 299 306 311 317
194 199 208 223 227 239 244 253 278 292 293 307 301 306 308 308 304 308 312 315 314 317 312 312 305 312 314 310 308 298 298 286 296 290 286 294 305 311 304 299 302 316 319
194 200 206 219 227 238 256 268 276 289 295 305 324 309 303 299 301 315 314 312 315 308 313 307 311 314 313 298 306 305 298 290 287 290 284 287 305 312 306 300 321 312 315
201 198 210 214 228 238 253 266 282 300 321 307 314 327 316 313 302 315 300 302 294 299 312 316 314 306 297 296 303 303 301 289 279 279 275 283 303 313 309 273 315 312 314
194 208 200 218 237 257 281 305 306 318 315 342 323 327 332 343 343 330 302 325 326 326 327 323 308 305 300 298 296 297 296 294 287 273 269 283 300 310 273 295 286 292 297
201 194 213 224 223 254 286 309 338 347 338 325 342 346 347 348 348 345 328 323 323 326 321 318 315 311 310 314 318 316 307 294 288 274 274 283 297 306 236 242 261 282 295
190 181 200 212 304 297 312 330 332 337 336 334 335 334 337 339 329 322 319 319 322 323 324 328 330 335 330 329 325 320 321 306 298 274 265 276 280 290 293 243 235 255 281
167 183 207 276 350 336 353 344 320 319 318 315 325 327 329 314 311 324 329 327 330 338 338 344 350 345 338 333 328 327 330 316 282 276 252 277 287 302 284 166 37 1 298
187 170 147 77 332 333 328 322 328 324 319 323 319 311 322 326 336 335 334 337 339 340 345 351 344 342 343 348 350 352 345 340 300 274 247 303 295 278 229 150 134 153 339
161 136 306 322 57 336 326 337 340 339 335 325 336 347 337 339 340 335 337 339 339 344 355 351 351 353 352 351 351 357 351 354 340 279 285 287 291 258 159 127 100 151 65
181 195 95 24 1 340 341 348 353 1 337 358 357 353 341 344 336 338 344 350 355 358 5 2 358 357 355 355 357 1 348 347 311 285 273 245 242 182 148 116 138 66 129
150 120 95 354 2 355 354 356 357 358 358 360 357 342 334 333 341 351 356 2 10 12 7 3 1 359 357 355 358 358 5 17 30 77 19 146 151 133 123 91 129 132 118
102 172 130 34 13 11 2 3 2 353 13 0 330 325 331 343 355 5 9 11 9 7 5 4 2 359 358 359 357 358 17 35 68 75 63 115 128 117 96 104 128 111 121
147 97 100 48 21 16 13 10 5 4 9 352 338 344 345 356 9 11 13 12 10 7 7 6 5 2 -0 4 10 18 42 50 72 82 102 120 122 103 104 113 93 113 124
52 57 47 46 37 23 22 13 13 8 10 354 350 348 0 12 15 16 15 14 13 15 12 11 10 11 17 18 31 46 66 73 89 101 112 107 108 101 106 91 103 114 127
118 86 54 56 37 29 26 17 22 359 11 358 353 5 15 20 20 20 20 21 21 18 19 20 22 27 33 39 51 68 81 91 99 111 119 117 103 99 88 95 109 125 131
106 87 57 49 50 34 32 24 9 13 6 356 7 16 22 23 22 26 27 25 25 27 26 29 33 40 45 58 68 85 90 90 100 113 107 97 102 92 92 102 114 127 125
96 82 72 53 47 38 38 27 16 13 5 4 18 24 25 26 24 29 33 33 30 32 28 38 54 60 63 70 77 86 94 100 103 102 101 105 103 103 100 109 120 125 125
96 81 67 57 50 42 33 23 27 14 4 13 23 26 27 27 28 34 37 34 38 38 39 54 63 68 74 76 78 81 84 89 93 99 106 105 105 100 111 117 125 128 124
86 73 68 63 51 40 39 25 32 12 9 18 27 27 25 26 28 37 44 40 43 46 59 69 74 73 73 75 73 76 82 87 92 96 106 98 92 103 111 118 124 125 115